Regional Weather Roundup
Issued by NWS Jackson, KY

Home | Current Version | Previous Version | Graphics & Text | Print | Product List | Glossary On
Versions: 1 2 3 4 5 6 7 8 9 10 11 12 13 14 15 16 17 18 19 20 21 22 23 24 25 26 27 28 29 30 31 32 33 34 35 36 37 38 39 40 41 42 43 44 45 46 47 48 49 50
000
ASUS43 KJKL 071410
RWRJKL

EAST KENTUCKY HOURLY WEATHER ROUNDUP
NATIONAL WEATHER SERVICE JACKSON KY
900 AM EST WED DEC 07 2016

NOTE: "FAIR" INDICATES FEW OR NO CLOUDS BELOW 12,000 FEET WITH
NO SIGNIFICANT WEATHER AND/OR OBSTRUCTIONS TO VISIBILITY.

* THESE REPORTS ARE NOT UNDER NWS QUALITY CONTROL AND MAY NOT
  REPORT WEATHER SUCH AS PRECIPITATION AND FOG.

KYZ079-080-083-085-087-088-110-112-115-119-120-071500
...EASTERN KENTUCKY...

CITY           SKY/WX    TMP DP  RH WIND       PRES   REMARKS
JACKSON        SUNNY     34  28  79 CALM      30.13R
LONDON         SUNNY     36  31  82 NE6       30.13R WCI  31
SOMERSET*      SUNNY     34  32  93 NE5       30.16R WCI  30
MONTICELLO*    SUNNY     36  31  82 NW9       30.17R WCI  29
WILLIAMSBURG*  CLOUDY    36  36 100 N5        30.13S WCI  32
MIDDLESBORO*   MOSUNNY   39  36  90 CALM      30.12F
HARLAN APT*    CLOUDY    37  34  87 CALM      30.12R
PIKE CO APT*   CLOUDY    36  35  95 NW5       30.13R WCI  32
BIG SANDY APT* CLOUDY    36  32  87 NW3       30.14R
MOREHEAD APT*  MOSUNNY   34  30  86 NW3       30.17R
ASHLAND*       MOSUNNY   37  30  75 NW5       30.15R WCI  34
$$

KYZ035-036-041-042-044-050-067-078-099-071500
...CENTRAL KENTUCKY...

CITY           SKY/WX    TMP DP  RH WIND       PRES   REMARKS
MT STERLING*   MOSUNNY   32  32 100 CALM      30.18R FOG
FLEMING/MASON* PTSUNNY   32  30  93 W6        30.18R WCI  26
DANVILLE*      SUNNY     32  32 100 N5        30.17R WCI  27
LEXINGTON      SUNNY     34  28  79 N5        30.17R WCI  30
FRANKFORT      SUNNY     33  27  78 NW3       30.18R
LOUISVILLE     PTSUNNY   36  27  69 NW5       30.20R WCI  32
LEBANON*         N/A     34  28  80 NW5       30.18R WCI  30
GLASGOW*       SUNNY     35  31  83 N5        30.17R WCI  31
BOWLING GREEN  MOSUNNY   36  33  89 MISG      30.19R FOG
$$

KYZ091>093-OHZ055-061-077-WVZ005-015-034-035-042-071500
...SOUTHERN OHIO/WEST VIRGINIA...

CITY           SKY/WX    TMP DP  RH WIND       PRES   REMARKS
COVINGTON      MOSUNNY   31  24  75 W5        30.16R WCI  26
COLUMBUS       PTSUNNY   29  27  92 SW6       30.12R WCI  23
DAYTON         MOSUNNY   26  21  81 SW7       30.13R WCI  18
WILMINGTON     MOSUNNY   28  24  85 W6        30.14R WCI  22
HUNTINGTON     SUNNY     37  30  75 NW6       30.14R WCI  32
CHARLESTON     PTSUNNY   37  31  78 W3        30.13R
PINEVILLE*     CLOUDY    38  36  91 MISG      30.14R
BECKLEY        CLOUDY    35  30  82 NW6       30.06R WCI  30
BLUEFIELD      CLOUDY    33  31  92 W6        30.05R WCI  28
LOGAN CO APT*  CLOUDY    36  34  93 CALM      30.10R
$$

VAZ002-007-008-TNZ017-027-036-066-071-071500
...SOUTHWEST VIRGINIA/EAST TENNESSEE...

CITY           SKY/WX    TMP DP  RH WIND       PRES   REMARKS
WISE*          SUNNY     36  36 100 CALM      30.09R
JONESVILLE*      N/A     37  36  93 CALM      30.13S
ABINGDON*      SUNNY     39  35  87 CALM      30.09R
BRISTOL        MOSUNNY   40  36  86 CALM      30.10R
MORRISTOWN*    CLOUDY    41  39  93 NE3       30.09R
SEVIERVILLE*   CLOUDY    43  36  75 NE6       30.08F
KNOXVILLE      CLOUDY    44  36  73 NE7       30.08S
OAK RIDGE      CLOUDY    43  36  76 CALM      30.11S
CROSSVILLE     CLOUDY    37  34  89 NE7       30.08S WCI  32
NASHVILLE      CLOUDY    38  34  85 N7        30.17R FOG     WCI  33
$$

...KEY TO REMARKS...
VSB - VISIBILITY IN MILES
WCI - WIND CHILL INDEX
HX  - HEAT INDEX

$$



USA.gov is the U.S. government's official web portal to all federal, state and local government web resources and services.